BEIDOU-2 G7

Last updated on Mon Sep 15 2025 00:02:49 GMT+0000 (Coordinated Universal Time)

1 41586U 16037A 25257.11164758 -.00000364 00000+0 00000+0 0 9997 2 41586 1.5338 66.5057 0004973 348.5099 89.0236 1.00266907 4122
UTC large
Height (km)
Speed (km/s)
/
Latitude / Longitude
Inclination (degrees)
Orbital Period (minutes)
Azimuth
Elevation
Range (km)
Doppler Factor

Next 0 passes for location: London (51.5072 / 0.1276)

Sorry there are no passes over London.